Regional Weather Roundup
Issued by NWS

Home | Current Version | Previous Version | Graphics & Text | Print | Product List | Glossary On
Versions: 1 2 3 4 5 6 7 8 9 10 11 12 13 14 15 16 17 18 19 20 21 22 23 24 25 26 27 28 29 30 31 32 33 34 35 36 37 38 39 40 41 42 43 44 45 46 47 48 49 50
000
ASUS43 KDTX 250301
RWRMI
MICHIGAN HOURLY REGIONAL WEATHER ROUNDUP
NATIONAL WEATHER SERVICE DETROIT/PONTIAC MI
1100 PM EDT SUN SEP 24 2017

NOTE: "FAIR" INDICATES FEW OR NO CLOUDS BELOW 12,000 FEET WITH NO
SIGNIFICANT WEATHER AND/OR OBSTRUCTION TO VISIBILITY.

MIZ047>049-052>055-059>063-066>070-074>076-081>083-250400-
SOUTHEAST LOWER MICHIGAN

CITY           SKY/WX    TMP DP  RH WIND       PRES   REMARKS
ADRIAN         CLEAR     72  64  76 E3        30.10S
ALMA           CLEAR     72  55  56 CALM      30.08S
ANN ARBOR      CLEAR     63  62  97 CALM      30.09S
BAD AXE        CLEAR     70  63  79 CALM      30.10S
CARO           CLEAR     65  61  86 CALM      30.09S
DETROIT CITY   CLEAR     74  67  78 CALM      30.09F
DETROIT        CLEAR     76  65  68 CALM      30.10S
FLINT          CLEAR     74  64  71 S5        30.09S
GROSSE ILE     CLEAR     73  65  77 CALM      30.08S
HILLSDALE      MOCLDY    70  61  73 SE6       30.10S
HOWELL         CLEAR     70  61  74 CALM      30.10S

CITY           SKY/WX    TMP DP  RH WIND       PRES   REMARKS
JACKSON        CLEAR     75  61  61 E7        30.09S
LAMBERTVILLE   CLEAR     70  67  90 CALM      30.08F
LANSING        CLEAR     76  59  55 SE7       30.09S
LAPEER         FAIR      64  61  88 CALM      30.11R
MASON          CLEAR     74  60  63 S3        30.09F
MONROE         CLEAR     74  68  82 CALM      30.08S
MT. CLEMENS    CLEAR     68  68 100 CALM      30.08S
PONTIAC        CLEAR     73  65  75 CALM      30.10S
PORT HOPE        N/A     75  64  68 S5        30.08S
PORT HURON     FOG       64  63  94 CALM      30.10S VSB<1/4
TRI CITIES     CLEAR     77  64  64 S8        30.08S
MIDLAND        FAIR      78  62  58 SE5       30.07S
TROY           CLEAR     74  63  69 CALM      30.12S
SAGINAW HB     CLEAR     72  61  68 S5        30.07S
$$
MIZ043>046-050>051-056>058-064>065-071>073-077>080-250400-
SOUTHWEST LOWER MICHIGAN

CITY           SKY/WX    TMP DP  RH WIND       PRES   REMARKS
BATTLE CREEK   CLEAR     76  60  57 SE5       30.09R
BENTON HARBOR  CLEAR     67  61  81 E3        30.04S
BIG RAPIDS     CLEAR     67  62  83 W5        30.07S
COLDWATER      CLEAR     73  60  64 SE3       30.09S
FREMONT        FAIR      67  63  86 CALM      30.05S
HOLLAND        CLEAR     68  60  75 CALM      30.06S
GRAND RAPIDS   CLEAR     73  59  61 S6        30.06S
IONIA          FAIR      71  57  60 SE7       30.07S
KALAMAZOO      CLEAR     70  59  68 CALM      30.08R
LUDINGTON      CLEAR     64  61  91 CALM      30.03S
MARSHALL       CLEAR     72  59  62 CALM      30.08S
MOUNT PLEASANT CLEAR     77  56  49 CALM      30.06S
MUSKEGON       CLEAR     69  60  73 CALM      30.05S
SOUTH HAVEN    CLEAR     67  61  81 CALM      30.05S
$$
MIZ016>042-250400-
NORTHERN LOWER MICHIGAN

CITY           SKY/WX    TMP DP  RH WIND       PRES   REMARKS
ALPENA         CLEAR     66  64  93 CALM      30.07S
BELLAIRE       CLEAR     66  64  93 CALM      30.05S
CADILLAC       CLEAR     67  59  74 CALM      30.08S
CHARLEVOIX     CLEAR     70  63  79 SE5       30.07S
FRANKFORT      CLEAR     66  64  91 CALM      30.04S
GAYLORD        CLEAR     69  59  70 SW3       30.09R
GRAYLING       CLEAR     67  58  73 W3        30.09S
HARBOR SPRINGS CLEAR     70  67  89 CALM      30.04S
HOUGHTON LAKE  CLEAR     72  61  68 SE6       30.09S
MANISTEE       CLEAR     63  62  97 E3        30.03S
OSCODA         CLEAR     68  65  90 S3        30.07S
PELLSTON       CLEAR     65  64  97 CALM      30.05S
ROGERS CITY    CLEAR     76  63  64 S10       30.05F
TRAVERSE CITY  CLEAR     70  65  84 CALM      30.03S
$$
MIZ007>008-015-250400-
EASTERN UPPER MICHIGAN

CITY           SKY/WX    TMP DP  RH WIND       PRES   REMARKS
KINROSS        CLEAR     70  66  87 S6        30.03F
MACKINAC ISLAN CLEAR     71  64  78 S7        30.03F
NEWBERRY       CLEAR     68  67  95 S7        30.01F FOG
S. S. MARIE    CLEAR     73  67  81 CALM      30.02F
MUNISING         N/A     73  65  75 S5        29.97S
$$
MIZ004>006-011>014-085-250400-
CENTRAL UPPER MICHIGAN

CITY           SKY/WX    TMP DP  RH WIND       PRES   REMARKS
MANISTIQUE     CLEAR     64  58  81 SE5       30.00F HAZE
ESCANABA       CLEAR     70  66  87 S5        29.98F
MENOMINEE      CLEAR     72  63  73 S6        29.99S
SAWYER-GWINN   CLEAR     70  64  81 S9        29.99S
$$
MIZ001>003-009>011-084-250400-
WESTERN UPPER MICHIGAN

CITY           SKY/WX    TMP DP  RH WIND       PRES   REMARKS
IRON MOUNTAIN  CLEAR     71  63  75 S5        29.97F
HOUGHTON       CLEAR     74  62  66 SW5       29.91R
COPPER HARBOR    N/A     74  63  68 SW7       29.88S
IRONWOOD       CLEAR     76  60  57 S12G22    29.91S
$$

ABBREVIATIONS USED IN REMARKS
   TC - TEMPERATURE IN CELSIUS
  WCI - WIND CHILL INDEX
   HX - HEAT INDEX
  VSB - VISIBILITY





USA.gov is the U.S. government's official web portal to all federal, state and local government web resources and services.